Location: Alumbaugh
(37.5976°N, 83.9299°W)
Time: 02:28:18
(UTC+00:00)

Oscar 11 - Pass Details

Date: 30 March 2023
Orbit: 609 x 619 km, 97.7° (Epoch: 07 June)

Event Time Altitude Azimuth Distance (km) Brightness Sun altitude
Rises 08:49:43 0° 35° (NE) 2,877 11.5 -29.7°
Reaches altitude 10° 08:53:02 10° 63° (ENE) 1,968 10.6 -29.2°
Maximum altitude 08:55:05 13° 92° (E) 1,764 10.0 -28.8°
Drops below altitude 10° 08:57:07 10° 121° (ESE) 1,963 9.9 -28.5°
Enters shadow 09:00:00 - 146° (SE) 2,736 10.4 -28.0°
